Flag for U.S.A. Weather past 2 weeks in Tallahassee, Florida, U.S.A.

Now
82 °F

Thunderstorms. Broken clouds.


Feels Like: 87 °F
Forecast: 74 / 87 °F
Wind: 10 mph from Southeast

Location: Tallahassee Regional Airport

Current Time: May 26, 2015 at 10:35:34 AM

Latest Report: May 26, 2015 at 9:53 AM


Visibility: 10 mi

Pressure: 30.19 "Hg

Humidity: 74%

Dew point: 73 °F

Location of TallahasseeLocation

Historic Weather in Tallahassee — Graph

°F

Tallahassee temperature yesterday

Maximum temperature yesterday: 91 °F (at 3:53 PM)
Minimum temperature yesterday: 74 °F (at 5:53 AM)
Average temperature yesterday: 81 °F

Past Weeks' High & Low Weather Summary

 TemperatureHumidityPressure
High95 °F (May 20, 3:53 PM)97% (May 15, 8:53 PM)30.28 "Hg (May 15, 8:53 PM)
Low68 °F (May 23, 12:53 AM)31% (May 22, 4:53 PM)29.91 "Hg (May 20, 4:53 PM)
Average80 °F67%30.13 "Hg
* Reported May 11 8:53 AM — May 26 8:53 AM, Tallahassee, Weather by CustomWeather, © 2015

Note: Actual official high and low records may vary slightly from our data, if they occured in-between our weather recording intervals... More about our weather records

Advertising

Tallahassee weather history for previous 24 hours

 ConditionsComfort  
Time TempWeatherWind HumidityBarometerVisibility
8:53 AM
Tue, May 26
79 °FBroken clouds.9 mph82%30.19 "Hg10 mi
7:53 AM76 °FScattered clouds.10 mph88%30.17 "Hg10 mi
6:53 AM75 °FPassing clouds.8 mph88%30.15 "Hg10 mi
5:53 AM74 °FPassing clouds.7 mph88%30.14 "Hg10 mi
4:53 AM75 °FClear.12 mph85%30.13 "Hg10 mi
3:53 AM75 °FClear.9 mph85%30.13 "Hg10 mi
2:53 AM76 °FPassing clouds.5 mph80%30.15 "Hg10 mi
1:53 AM76 °FPassing clouds.3 mph77%30.14 "Hg10 mi
12:53 AM78 °FMostly cloudy.3 mph66%30.15 "Hg10 mi
11:53 PM
Mon, May 25
78 °FPassing clouds.5 mph64%30.15 "Hg10 mi
10:53 PM75 °FPassing clouds.No wind71%30.14 "Hg10 mi
9:53 PM78 °FPassing clouds.No wind69%30.12 "Hg10 mi
8:53 PM80 °FScattered clouds.3 mph64%30.12 "Hg10 mi
7:53 PM86 °FBroken clouds.3 mph48%30.13 "Hg10 mi
6:53 PM88 °FPartly sunny.9 mph46%30.14 "Hg10 mi
5:53 PM89 °FPartly sunny.9 mph46%30.13 "Hg10 mi
4:53 PM90 °FPartly sunny.10 mph47%30.13 "Hg10 mi
3:53 PM91 °FPartly sunny.13 mph47%30.14 "Hg10 mi
2:53 PM89 °FBroken clouds.13 mph52%30.15 "Hg10 mi
1:53 PM89 °FPartly sunny.13 mph53%30.17 "Hg10 mi
12:53 PM89 °FPartly sunny.8 mph53%30.18 "Hg10 mi
11:53 AM84 °FPartly sunny.8 mph65%30.20 "Hg10 mi
10:53 AM83 °FPartly sunny.13 mph68%30.20 "Hg10 mi
Weather by CustomWeather, © 2015

See weather overviewHow to use our weather pages